{"data":{"norad_id":48111,"epoch":"2026-05-25T01:13:12.607104Z","epoch_age_seconds":64427,"freshness":"FRESH","line1":"1 48111U 21027V   26145.05084036  .00044272  00000+0  11403-2 0  9990","line2":"2 48111  53.1557 157.5772 0006641  10.7248 349.3897 15.38787764284391","mean_motion":15.38787764,"eccentricity":0.0006641,"inclination_deg":53.1557,"raan_deg":157.5772,"arg_perigee_deg":10.7248,"mean_anomaly_deg":349.3897,"bstar":0.0011403,"rev_number":28439,"period_min":93.580156645956,"perigee_km":445.15851782341,"apogee_km":454.22724146956,"semimajor_km":6827.8298796465,"source":"CELESTRAK","updated_at":"2026-05-25T13:38:16.644126Z"}}